Weather History for Owosso, MI

Change the Weather History Date:

Monday, October 1, 2012

  Actual Average (KFNT) Record (KFNT)
Temperature  
Mean Temperature 52 °F 55 °F  
Max Temperature 67 °F 66 °F 89 °F (2002)
Min Temperature 38 °F 44 °F 28 °F (1960)
Degree Days  
Heating Degree Days 12 11  
Month to date heating degree days 11  
Since 1 July heating degree days 221  
Cooling Degree Days 0 1  
Month to date cooling degree days 1  
Year to date cooling degree days 527  
Growing Degree Days 2 (Base 50)    
Moisture  
Dew Point 44 °F    
Average Humidity 78    
Maximum Humidity 100    
Minimum Humidity 38    
Precipitation  
Precipitation 0.00 in 0.10 in 1.20 in (1933)
Month to date precipitation 0.10  
Year to date precipitation 24.41  
Snow  
Snow 0.00 in 0.00 in T in ()
Month to date snowfall 0.0  
Since 1 July snowfall 0.0  
Since 1 September snowfall 0.0  
Snow Depth -    
Sea Level Pressure  
Sea Level Pressure 29.91 in    
Wind  
Wind Speed 0 mph (NE)    
Max Wind Speed 6 mph    
Max Gust Speed -    
Visibility 8 miles    
Events Fog    
T = Trace of Precipitation, MM = Missing Value Source: NWS Daily Summary

Daily Weather History Graph

Daily Weather History Graph

Search for Another Location

Airport:

Trip Planner

Search our weather history database for the weather conditions in past years. The results will help you decide how hot, cold, wet, or windy it might be!

Date:

Astronomy

Oct. 01, 2012 Rise Set
Actual Time 7:34 AM EDT 7:16 PM EDT
Civil Twilight 7:06 AM EDT 7:45 PM EDT
Nautical Twilight 6:33 AM EDT 8:18 PM EDT
Astronomical Twilight 5:59 AM EDT 8:51 PM EDT
Moon 7:49 PM EDT (10/1) 9:06 AM EDT (10/1)
Length of Visible Light 12h 39m
Length of Day
11h 42m
Full, 98% of the Moon is Illuminated
Oct 1
Full
Oct 8
Last Quarter
Oct 15
New
Oct 21
First Quarter
Oct 29
Full

Hourly Weather History & Observations

Time (EDT) Temp. Dew Point Humidity Pressure Visibility Wind Dir Wind Speed Gust Speed Precip Events Conditions
12:15 AM 44.6 °F 44.6 °F 100% 29.96 in 10.0 mi Calm Calm - N/A   Clear
12:35 AM 43.5 °F 43.3 °F 99% 29.96 in 10.0 mi Calm Calm - N/A   Clear
12:55 AM 42.8 °F 42.8 °F 100% 29.94 in 10.0 mi Calm Calm - N/A   Clear
1:15 AM 42.6 °F 42.6 °F 100% 29.93 in 10.0 mi Calm Calm - N/A   Clear
1:35 AM 41.2 °F 41.2 °F 100% 29.94 in 7.0 mi Calm Calm - N/A   Clear
1:55 AM 41.7 °F 41.7 °F 100% 29.94 in 2.5 mi Calm Calm - N/A   Clear
2:15 AM 42.8 °F 42.8 °F 100% 29.94 in 0.8 mi Calm Calm - N/A   Mist
2:35 AM 41.0 °F 41.0 °F 100% 29.94 in 10.0 mi Calm Calm - N/A   Clear
2:55 AM 40.5 °F 40.5 °F 100% 29.94 in 1.0 mi Calm Calm - N/A   Mist
3:36 AM 41.0 °F 41.0 °F 100% 29.94 in 7.0 mi Calm Calm - N/A   Clear
3:55 AM 40.1 °F 40.1 °F 100% 29.94 in 0.8 mi Calm Calm - N/A   Mist
4:35 AM 39.2 °F 39.2 °F 100% 29.93 in - Calm Calm - N/A   Unknown
4:55 AM 38.8 °F 38.8 °F 100% 29.93 in - Calm Calm - N/A   Unknown
5:15 AM 39.9 °F 39.9 °F 100% 29.94 in 2.5 mi Calm Calm - N/A   Scattered Clouds
5:55 AM 39.4 °F 39.4 °F 100% 29.94 in 10.0 mi Calm Calm - N/A   Overcast
6:15 AM 39.4 °F 39.4 °F 100% 29.94 in 3.0 mi Calm Calm - N/A   Overcast
6:35 AM 39.4 °F 39.4 °F 100% 29.94 in 10.0 mi Calm Calm - N/A   Overcast
6:55 AM 39.2 °F 39.2 °F 100% 29.94 in 0.5 mi Calm Calm - N/A Fog Fog
7:15 AM 38.8 °F 38.8 °F 100% 29.96 in 0.8 mi Calm Calm - N/A   Mist
7:35 AM 38.3 °F 38.3 °F 100% 29.94 in 2.5 mi Calm Calm - N/A   Mostly Cloudy
7:55 AM 38.7 °F 38.7 °F 100% 29.95 in 5.0 mi Calm Calm - N/A   Overcast
8:16 AM 40.3 °F 40.3 °F 100% 29.96 in 7.0 mi Calm Calm - N/A   Scattered Clouds
8:35 AM 40.8 °F 40.8 °F 100% 29.96 in 10.0 mi Calm Calm - N/A   Clear
9:15 AM 45.1 °F 45.1 °F 100% 29.96 in 10.0 mi Calm Calm - N/A   Clear
9:35 AM 46.4 °F 46.4 °F 100% 29.96 in 10.0 mi Calm Calm - N/A   Clear
9:55 AM 49.3 °F 49.3 °F 100% 29.96 in 10.0 mi Calm Calm - N/A   Clear
10:15 AM 53.1 °F 53.1 °F 100% 29.96 in 10.0 mi Calm Calm - N/A   Clear
10:35 AM 56.8 °F 52.0 °F 84% 29.94 in 10.0 mi Calm Calm - N/A   Clear
11:15 AM 61.3 °F 49.5 °F 65% 29.94 in 10.0 mi Calm Calm - N/A   Clear
11:35 AM 61.7 °F 46.2 °F 57% 29.95 in 10.0 mi Calm Calm - N/A   Clear
11:55 AM 64.8 °F 46.2 °F 51% 29.94 in 10.0 mi NNE 3.5 mph - N/A   Clear
12:15 PM 64.4 °F 44.4 °F 48% 29.93 in 10.0 mi WNW 5.8 mph - N/A   Clear
12:35 PM 64.4 °F 44.1 °F 48% 29.92 in 10.0 mi Calm Calm - N/A   Clear
12:56 PM 65.3 °F 43.7 °F 46% 29.92 in 10.0 mi Calm Calm - N/A   Clear
1:15 PM 64.2 °F 43.3 °F 47% 29.92 in 10.0 mi Calm Calm - N/A   Clear
1:35 PM 65.1 °F 42.4 °F 44% 29.91 in 10.0 mi Calm Calm - N/A   Clear
1:55 PM 66.0 °F 42.3 °F 42% 29.90 in 10.0 mi ENE 3.5 mph - N/A   Clear
2:15 PM 66.2 °F 41.7 °F 41% 29.89 in 10.0 mi Calm Calm - N/A   Clear
2:36 PM 67.1 °F 41.4 °F 39% 29.89 in 10.0 mi NE 3.5 mph - N/A   Clear
2:55 PM 66.0 °F 41.7 °F 41% 29.88 in 10.0 mi Calm Calm - N/A   Clear
3:15 PM 66.2 °F 41.5 °F 41% 29.87 in 10.0 mi Calm Calm - N/A   Clear
3:55 PM 67.3 °F 41.4 °F 39% 29.86 in 10.0 mi Calm Calm - N/A   Clear
4:15 PM 66.6 °F 41.7 °F 40% 29.87 in 10.0 mi SSW 4.6 mph - N/A   Clear
4:35 PM 67.3 °F 41.9 °F 40% 29.87 in 10.0 mi Calm Calm - N/A   Clear
4:55 PM 66.4 °F 39.9 °F 38% 29.85 in 10.0 mi Calm Calm - N/A   Clear
5:15 PM 66.2 °F 40.1 °F 38% 29.86 in 10.0 mi NE 3.5 mph - N/A   Clear
5:35 PM 66.2 °F 41.0 °F 40% 29.86 in 10.0 mi Calm Calm - N/A   Clear
6:16 PM 65.3 °F 42.6 °F 44% 29.86 in 10.0 mi Calm Calm - N/A   Clear
6:35 PM 63.7 °F 44.8 °F 50% 29.86 in 10.0 mi Calm Calm - N/A   Clear
7:15 PM 59.0 °F 49.1 °F 70% 29.86 in 10.0 mi Calm Calm - N/A   Clear
7:35 PM 57.6 °F 48.0 °F 70% 29.86 in 10.0 mi Calm Calm - N/A   Clear
7:55 PM 56.3 °F 48.0 °F 74% 29.87 in 10.0 mi Calm Calm - N/A   Clear
8:15 PM 55.8 °F 48.6 °F 77% 29.87 in 10.0 mi Calm Calm - N/A   Clear
8:36 PM 53.2 °F 48.2 °F 83% 29.87 in 10.0 mi Calm Calm - N/A   Clear
8:55 PM 53.6 °F 48.4 °F 82% 29.87 in 10.0 mi Calm Calm - N/A   Clear
9:15 PM 53.2 °F 49.3 °F 86% 29.87 in 10.0 mi Calm Calm - N/A   Clear
9:35 PM 53.4 °F 49.3 °F 86% 29.87 in 10.0 mi Calm Calm - N/A   Clear
9:55 PM 54.0 °F 49.6 °F 85% 29.87 in 10.0 mi Calm Calm - N/A   Clear
10:15 PM 52.7 °F 49.3 °F 88% 29.87 in 10.0 mi Calm Calm - N/A   Clear
10:35 PM 51.8 °F 49.3 °F 91% 29.87 in 10.0 mi Calm Calm - N/A   Clear
10:55 PM 52.5 °F 49.1 °F 88% 29.87 in 10.0 mi Calm Calm - N/A   Clear
11:35 PM 52.0 °F 49.3 °F 90% 29.87 in 10.0 mi Calm Calm - N/A   Clear
11:55 PM 52.2 °F 50.2 °F 93% 29.87 in 10.0 mi Calm Calm - N/A   Clear